Terug naar catalogus

YAOGAN-43 O1E

ActiefMilitairVLEO
NORAD 60462·PAYLOAD·🇨🇳 China

Gelanceerd Aug 16, 2024 vanaf Xichang Satellite Launch Center

Loading…

Volgende Passages (komende 24 uur)

TLE

VersSource: Space-Track

Epoch: Sep 14, 2026, 15:02 UTC

1 60462U 24148E   26257.62651470  .00008077  00000-0  33661-3 0  9994
2 60462  34.9940 317.6570 0003250 312.2774  47.7665 15.22982492115808

Volg YAOGAN-43 O1E in realtime met AllMySat

Download on the App Store